Location: Pabrico
(37.5827°N, 122.0063°W)
Time: 10:14:12
(UTC+00:00)

Chandra Rocket (1) - Pass Details

Date: 13 April 2024
Orbit: 293 x 10893 km, 28.4° (Epoch: 23 May)

Event Time Altitude Azimuth Distance (km) Brightness Sun altitude
Exits shadow 12:35:39 14° 214° (SW) 1,452 3.5 -12.1°
Maximum altitude 12:38:02 27° 160° (SSE) 1,331 3.7 -11.6°
Drops below altitude 10° 12:44:24 10° 105° (ESE) 3,673 6.9 -10.4°
Sets 12:50:36 0° 97° (E) 6,193 8.4 -9.3°
